Taurus 1
1 44530U 19059C   25023.78818310  .00015296  00000-0  30321-2 0  9992
2 44530  98.5891 157.1761 0009787  99.0985 261.1323 14.62307585283920
Duchifat 3
1 44854U 19089C   25023.64100806  .00048089  00000-0  15080-2 0  9994
2 44854  36.9477 136.4759 0009616 137.7228 222.4267 15.32042695281834
TO-108
1 44881U 19093C   25023.80851587  .00002564  00000-0  30614-3 0  9995
2 44881  97.8077 102.2838 0013152 325.2747  34.7608 14.85034526275775
FloripaSat 1
1 44885U 19093G   25023.81206016  .00010248  00000-0  92469-3 0  9995
2 44885  97.8251 111.3678 0010496 306.3386  53.6865 14.95676459276283
RS-44
1 44909U 19096E   25023.81595369  .00000008  00000-0 -59717-5 0  9992
2 44909  82.5247 318.1653 0216327 255.3468 102.3562 12.79737916237235
UPMSat 2
1 46276U 20061E   25023.60443763  .00049611  00000-0  86406-3 0  9997
2 46276  97.2670  95.1954 0001449  68.4210 291.7196 15.50605432244129
AmicalSat
1 46287U 20061R   25010.85863821  .11283921  24654-5  56408-3 0  9994
2 46287  97.2840  89.8720 0009935 281.1985  78.8199 16.41970930241877
SALSAT
1 46495U 20068K   25023.46573510  .00015272  00000-0  72541-3 0  9996
2 46495  97.8450 355.6335 0010356 278.9504  81.0557 15.19286894237688
CubeSX-Sirius-HSE
1 47951U 21022V   25023.82691485  .00075810  00000-0  13950-2 0  9999
2 47951  97.4371 290.4035 0011992  72.2130 288.0429 15.48848802212421
CubeSX-HSE
1 47952U 21022W   25023.74850699  .00077203  00000-0  14048-2 0  9992
2 47952  97.4362 290.4883 0012123  72.2116 288.0456 15.49162170212422
KSU-Cubesat
1 47954U 21022Y   25023.67586865  .00169261  00000-0  17848-2 0  9994
2 47954  97.4355 293.8989 0010629  69.7968 290.4432 15.63629694212353
GRBAlpha
1 47959U 21022AD  25023.77306223  .00079279  00000-0  14466-2 0  9990
2 47959  97.4365 290.6787 0011940  72.4850 287.7704 15.49076737211255
Orbicraft-Zorkiy
1 47960U 21022AE  25023.77764005  .00121233  00000-0  16145-2 0  9992
2 47960  97.4362 293.4315 0010996  69.7048 290.5388 15.57664671212092
TUBIN
1 48900U 21059X   25023.75811210  .00042329  00000-0  86926-3 0  9999
2 48900  97.6635 183.5321 0005321  21.5808 338.5664 15.45881397198809
LEDSAT
1 49069U 21073D   25023.72825493  .00049431  00000-0  11478-2 0  9997
2 49069  97.4088 101.4623 0013058 215.6130 144.4246 15.42122550190224
CUTE
1 49263U 21088D   25023.64564745  .00052944  00000-0  13634-2 0  9999
2 49263  97.4689  96.5111 0009768  25.7604 334.4126 15.39001702183302
TeikyoSat 4
1 49396U 21102B   25023.58610309  .00004785  00000-0  32671-3 0  9997
2 49396  97.4323  66.8935 0011417 239.9760 120.0335 15.06589013175913
Z-Sat
1 49399U 21102E   25023.76364894  .00007673  00000-0  44390-3 0  9995
2 49399  97.4026  69.3988 0017849 214.0723 145.9363 15.12394630176284
KOSEN 1
1 49402U 21102H   25023.57516989  .00011554  00000-0  58254-3 0  9990
2 49402  97.3941  71.6943 0016423 192.4895 167.5934 15.17186020176491
HO-113
1 50466U 21131B   25023.80085051  .00001584  00000-0  51181-3 0  9995
2 50466  98.5165 113.8493 0004301 173.2089 186.9158 14.40475261161756
IRIS-A
1 51044U 22002BN  25023.15503493  .00078949  00000-0  12064-2 0  9994
2 51044  97.3506  97.4980 0003806 327.6250  32.4770 15.54135561168290
Foresail-1
1 52766U 22057AL  25023.30996908  .00076832  00000-0  11814-2 0  9991
2 52766  97.5964 163.4051 0005627  56.2214 303.9574 15.53961578148350
SNUGLITE 2
1 52899U 22065F   25023.35221263  .00003578  00000-0  71490-3 0  9991
2 52899  98.1447 166.9059 0007622 176.1186 184.0076 14.62487318136427
IO-117
1 53106U 22080B   25013.55270770 -.00000003  00000-0  00000+0 0  9994
2 53106  70.1424 119.4379 0008206  58.9554 301.1910  6.42557525 58785
FO-118
1 54684U 22167C   25023.76854537  .00235077  00000-0  18190-2 0  9997
2 54684  97.6107 185.1093 0003476  15.7376 344.3993 15.71162645118356
SO-120
1 56992U 23084BU  25023.83470302  .00436926  00000-0  21771-2 0  9997
2 56992  97.5270 157.5135 0009471 299.6434  60.3889 15.80695704 90253
UmKA 1 (RS40S)
1 57172U 23091G   25023.80919210  .00010588  00000-0  60679-3 0  9992
2 57172  97.5819  79.9938 0016777  86.5714 273.7435 15.12660260 86786
CubeBel-2 (EU11S)
1 57175U 23091K   25023.80354571  .00015365  00000-0  81824-3 0  9991
2 57175  97.5818  80.4503 0014711  95.8545 264.4364 15.15217167 86813
VERONIKA
1 58261U 23174F   25023.77554331  .00065153  00000-0  15386-2 0  9991
2 58261  97.4334 105.0121 0007925 179.2018 180.9243 15.41598290 67436
KAFASAT
1 58317U 23174BP  25023.58105271  .00144589  00000-0  19982-2 0  9994
2 58317  97.4232 107.5271 0004614 156.7464 203.4000 15.56640197 67606
ENSO
1 58470U 23185J   25023.82007314  .00047456  00000-0  11978-2 0  9994
2 58470  97.3956  96.1419 0008684 210.7827 149.2911 15.39653795 63883
EIRSAT-1
1 58472U 23185L   25023.82674936  .00059272  00000-0  13359-2 0  9990
2 58472  97.3950  96.7035 0007949 211.7185 148.3585 15.43025821 63920
SONATE-2
1 59112U 24043Q   25021.87028131  .00024458  00000-0  87701-3 0  9990
2 59112  97.4954 151.1457 0011652 246.2508 113.7509 15.28647274 49098
MO-122
1 60209U 24125G   25023.54663282  .00026380  00000-0  93211-3 0  9997
2 60209  97.2958 237.1980 0020546 269.1372  90.7514 15.28972171 30963
GRBBeta
1 60237U 24128C   25023.76598793  .00007811  00000-0  62307-3 0  9999
2 60237  61.9917 195.8693 0036977  25.3602 334.9292 15.00520926 29658
Curium One
1 60242U 24128H   25023.76978721  .00012674  00000-0  97225-3 0  9998
2 60242  61.9820 195.6632 0037092  19.1414 341.1060 15.01592081 29665
ROBUSTA-3A
1 60243U 24128J   25023.80251018  .00010104  00000-0  78689-3 0  9996
2 60243  61.9887 195.9710 0035072  17.0818 343.1443 15.01249734 29661
CatSat
1 60246U 24125J   25022.29449594  .00019571  00000-0  73613-3 0  9995
2 60246  97.2752 236.4649 0045163 224.6425 135.1174 15.26202208 28864
AO-123
1 61781U 24199AY  25023.81425978  .00014482  00000-0  57846-3 0  9996
2 61781  97.3766 253.3761 0016306 327.5220  32.5013 15.25118811 56016
POEM 4 (BGS ARPIT)
1 62461U 24253C   25023.79770067  .00119286  00000-0  73529-3 0  9996
2 62461  55.2211 140.5352 0007693 347.8149  12.2711 15.76349504  3784
